Flag for Finland Weather past 2 weeks in Helsinki, Finland

Now
39 °F

Rain. Mostly cloudy.


Feels Like: 36 °F
Forecast: 35 / 43 °F
Wind: 5 mph from East

Location: Helsinki Malmi Airport

Current Time: Mar 28, 2015 at 3:12:48 AM

Latest Report: Mar 28, 2015 at 2:20 AM


Visibility: 5 mi

Pressure: 29.92 "Hg

Humidity: 93%

Dew point: 37 °F

Location of HelsinkiLocation

Historic Weather in Helsinki — Graph

°F

Helsinki temperature yesterday

Maximum temperature yesterday: 37 °F (at 12:50 PM)
Minimum temperature yesterday: 34 °F (at 12:50 AM)
Average temperature yesterday: 36 °F

Past Weeks' High & Low Weather Summary

 TemperatureHumidityPressure
High54 °F (Mar 18, 1:50 PM)100% (Mar 13, 1:50 AM)31.04 "Hg (Mar 13, 1:50 AM)
Low16 °F (Mar 22, 4:20 AM)23% (Mar 21, 3:20 PM)29.27 "Hg (Mar 24, 4:50 AM)
Average34 °F64%30.33 "Hg
* Reported Mar 13 1:20 AM — Mar 28 1:50 AM, Helsinki, Weather by CustomWeather, © 2015

Note: Actual official high and low records may vary slightly from our data, if they occured in-between our weather recording intervals... More about our weather records

Advertising

Helsinki weather history for previous 24 hours

 ConditionsComfort  
Time TempWeatherWind HumidityBarometerVisibility
1:50 AM
Sat, Mar 28
39 °FMostly cloudy.6 mph87%29.92 "HgN/A
1:20 AM39 °FOvercast.5 mph87%29.92 "HgN/A
12:50 AM39 °FSprinkles. Overcast.7 mph87%29.92 "HgN/A
12:20 AM37 °FOvercast.7 mph93%29.95 "HgN/A
11:50 PM
Fri, Mar 27
37 °FOvercast.8 mph87%29.95 "HgN/A
11:20 PM37 °FOvercast.9 mph87%29.95 "HgN/A
10:50 PM37 °FOvercast.9 mph87%29.95 "HgN/A
10:20 PM37 °FOvercast.12 mph87%29.95 "HgN/A
9:50 PM37 °FOvercast.13 mph87%29.95 "HgN/A
9:20 PM37 °FOvercast.14 mph87%29.98 "HgN/A
8:50 PM37 °FPassing clouds.14 mph93%29.98 "HgN/A
8:20 PM37 °FSprinkles. Passing clouds.13 mph93%29.98 "Hg6 mi
7:50 PM37 °FSprinkles. Passing clouds.12 mph93%29.98 "HgN/A
7:20 PM37 °FLight rain. Passing clouds.13 mph93%29.98 "Hg6 mi
6:50 PM37 °FLight rain. Passing clouds.13 mph87%29.98 "Hg4 mi
6:20 PM37 °FLight rain. Partly sunny.14 mph87%29.98 "Hg4 mi
5:50 PM37 °FLight rain. Partly sunny.13 mph87%29.98 "HgN/A
5:20 PM37 °FLight rain. Partly sunny.15 mph87%29.98 "Hg5 mi
4:50 PM36 °FLight rain. Partly sunny.13 mph93%29.98 "Hg4 mi
4:20 PM36 °FLight rain. Partly sunny.14 mph93%29.98 "Hg3 mi
3:50 PM36 °FLight rain. Partly sunny.14 mph87%29.98 "Hg5 mi
3:20 PM36 °FLight rain. Partly sunny.16 mph87%30.01 "Hg4 mi
2:50 PM36 °FLight rain. Partly sunny.17 mph87%30.01 "Hg4 mi
2:20 PM36 °FSleet. Broken clouds.17 mph81%30.01 "HgN/A
1:50 PM36 °FSprinkles. Broken clouds.17 mph70%30.04 "HgN/A
1:20 PM37 °FBroken clouds.16 mph60%30.04 "HgN/A
12:50 PM37 °FPassing clouds.21 mph60%30.04 "HgN/A
12:20 PM36 °FPassing clouds.23 mph65%30.04 "HgN/A
11:50 AM36 °FPassing clouds.18 mph65%30.04 "HgN/A
11:20 AM36 °FPassing clouds.22 mph65%30.04 "HgN/A
10:50 AM34 °FPassing clouds.22 mph70%30.04 "HgN/A
10:30 AM34 °FPassing clouds.21 mph65%30.04 "HgN/A
9:50 AM34 °FPassing clouds.21 mph65%30.04 "HgN/A
9:20 AM34 °FSunny.23 mph65%30.04 "Hg10 mi
8:50 AM34 °FPassing clouds.25 mph65%30.07 "HgN/A
8:20 AM34 °FPassing clouds.23 mph65%30.07 "HgN/A
7:50 AM34 °FPassing clouds.21 mph65%30.07 "HgN/A
7:20 AM34 °FPassing clouds.18 mph65%30.07 "HgN/A
6:50 AM34 °FPassing clouds.20 mph65%30.07 "HgN/A
6:20 AM34 °FSunny.18 mph65%30.09 "Hg10 mi
5:50 AM34 °FPassing clouds.21 mph65%30.09 "HgN/A
4:50 AM34 °FPassing clouds.22 mph65%30.09 "HgN/A
4:20 AM34 °FPassing clouds.20 mph60%30.09 "HgN/A
3:50 AM34 °FPassing clouds.18 mph60%30.09 "HgN/A
3:20 AM36 °FPassing clouds.18 mph56%30.12 "HgN/A
Weather by CustomWeather, © 2015

See weather overviewHow to use our weather pages